SCP
0 0 0 0 0 0 0 0 0 0 0 0 0 0 0 0 0 -0 0 0 0 0 0 0 0 0 -0 -0 -0 -0 -0 -0 -0 0 -0 0 0 0 0 0 0 0 -0 0 0
0 0 0 0 0 0 0 0 0 0 0 0 0 0 0 0 0 0 0 0 -0 0 0 0 0 0 0 0 -0 -0 -0 -0 0 0 -0 -0 0 0 0 0 0 -0 -0 0 0
0 0 0 0 0 0 0 0 0 0 0 0 0 0 0 0 0 0 0 0 0 0 0 0 0 -0 0 0 -0 -0 -0 0 -0 -0 -0 -0 0 0 -0 0 -0 -0 -0 0 -0
0 0 0 0 0 0 0 0 0 0 0 0 0 0 0 0 0 0 0 0 0 0 0 0 0 0 0 0 -0 0 -0 0 0 0 -0 -0 -0 0 0 0 0 -0 0 0 0
-0 -0 -0 0 0 0 0 0 0 0 0 0 0 0 0 0 0 0 0 0 0 0 0 0 0 0 0 0 0 0 -0 -0 -0 0 -0 -0 -0 -0 0 0 0 -0 0 0 0
-0 -0 -0 -0 -0 0 0 0 0 0 0 0 0 0 0 0 0 0 0 0 0 0 0 0 0 0 0 0 0 0 -0 -0 -0 -0 -0 -0 -0 0 0 0 0 -0 0 0 0
-0 -0 -0 -0 -0 -0 0 0 0 0 0 0 0 0 0 0 0 -0 -0 0 0 0 0 0 0 0 0 0 0 0 0 0 -0 -0 -0 -0 -0 -0 -0 0 0 0 0 0 0
-0 -0 -0 -0 -0 -0 -0 0 0 0 0 0 0 0 0 0 0 -0 -0 0 0 0 0 0 0 0 0 -0 0 0 0 0 0 -0 -0 -0 -0 0 0 -0 -0 -0 0 0 0
-0 -0 -0 -0 -0 -0 -0 -0 0 0 0 0 0 0 0 0 0 0 0 0 0 0 0 0 0 0 0 0 0 0 -0 0 0 -0 -0 -0 0 0 0 0 -0 -0 0 0 0
0 -0 -0 -0 -0 -0 -0 -0 -0 -0 0 0 0 0 0 0 0 0 0 0 0 0 0 0 0 0 0 0 0 0 -0 -0 0 0 0 -0 -0 0 0 -0 -0 -0 0 0 -0
-0 -0 -0 -0 -0 -0 -0 -0 0 0 0 0 0 0 0 -0 0 -0 -0 0 0 0 0 0 0 0 0 0 0 0 0 0 0 0 0 0 0 0 -0 -0 -0 -0 0 -0 -0
0 -0 -0 -0 -0 -0 0 0 0 0 0 0 0 0 0 0 0 0 0 0 0 0 0 0 0 0 0 0 0 0 0 0 0 0 0 0 0 0 0 0 0 -0 0 -0 -0
0 -0 -0 -0 -0 0 0 -0 0 -0 0 0 0 0 0 0 0 0 0 0 0 0 0 0 0 0 0 0 0 0 0 0 0 0 0 0 -0 0 0 0 0 -0 0 0 0
0 0 -0 -0 -0 0 0 0 -0 0 0 0 0 0 0 0 0 0 0 0 0 0 0 0 0 0 0 0 0 0 0 0 -0 0 0 0 0 0 -0 -0 -0 -0 -0 0 0
0 0 -0 -0 -0 -0 0 -0 0 -0 0 -0 -0 -0 0 0 0 0 0 -0 0 0 0 0 0 0 0 0 0 0 0 0 0 0 0 0 -0 0 0 0 -0 -0 -0 0 0
0 -0 -0 0 0 -0 -0 -0 0 0 0 -0 -0 0 0 0 0 0 0 0 0 0 0 0 0 0 0 0 0 0 0 0 0 0 0 0 -0 0 0 0 -0 0 0 -0 -0
0 0 0 0 -0 -0 -0 0 0 0 -0 0 0 0 -0 0 -0 0 0 0 0 0 0 0 0 0 0 0 0 0 0 0 0 0 -0 0 0 0 -0 -0 0 0 -0 -0 -0
0 0 0 -0 -0 -0 -0 -0 0 -0 0 0 -0 0 0 0 -0 0 0 0 0 0 0 0 0 0 0 0 0 0 0 0 0 0 0 -0 0 0 0 0 0 0 0 -0 -0
0 -0 0 0 -0 -0 0 0 -0 -0 0 0 -0 -0 -0 -0 0 0 0 0 0 0 0 0 0 0 0 0 0 0 0 0 0 0 0 0 0 0 -0 0 0 -0 -0 -0 -0
0 0 0 -0 -0 0 0 -0 -0 0 -0 0 0 0 0 0 0 0 0 0 0 0 0 0 0 0 0 0 0 0 0 0 0 0 0 0 0 0 0 1 1 1 1 0 0
0 0 0 -0 0 0 -0 0 0 0 -0 0 0 0 0 0 0 0 0 0 0 0 0 0 0 0 0 0 0 0 0 0 -0 0 0 0 0 0 1 0 0 0 0 0 0
0 0 0 -0 0 0 0 0 0 0 0 0 0 0 0 0 0 0 0 0 0 0 0 0 0 0 0 0 0 0 0 0 0 0 0 0 0 0 0 0 0 0 0 0 0
0 0 0 0 0 0 0 0 0 -0 -0 0 0 0 0 0 0 0 0 0 0 0 0 0 0 0 0 0 0 0 0 0 0 0 0 0 0 0 -0 0 0 0 0 0 0
0 -0 -0 -0 -0 -0 0 0 0 0 -0 0 0 0 0 0 0 0 -0 0 0 0 0 0 0 0 0 0 0 0 0 0 0 0 0 0 0 0 0 0 0 0 0 0 0
0 -0 0 -0 0 0 0 0 -0 -0 0 0 -0 0 0 0 0 0 0 0 0 0 0 0 0 0 0 0 0 0 0 0 0 -0 0 0 0 0 0 0 0 0 0 0 0
0 0 0 0 0 0 -0 0 -0 -0 -0 -0 0 0 0 0 0 0 0 0 0 0 0 0 0 0 0 0 0 0 0 0 0 0 0 0 0 0 0 0 0 0 0 0 0
-0 -0 -0 0 0 -0 0 0 0 0 -0 -0 -0 0 -0 0 0 0 0 0 0 0 0 0 0 0 0 0 0 0 0 0 0 0 0 0 0 0 0 0 0 0 0 0 0
Wind_Speed_500mb
29 29 29 29 30 32 30 26 23 23 23 22 23 21 19 21 23 30 40 21 24 14 23 18 15 28 30 43 43 9 5 4 9 21 11 10 11 15 29 8 29 34 67 77 73
29 29 28 28 26 27 30 30 27 24 23 21 21 23 21 21 28 41 31 28 32 21 27 30 28 28 37 37 25 9 11 6 7 14 20 19 13 22 14 11 10 65 66 69 64
29 28 28 29 29 26 25 27 29 26 25 22 18 20 20 21 22 15 13 27 29 31 23 30 30 39 42 48 31 18 10 14 29 26 44 32 22 22 40 24 65 74 76 67 72
30 30 28 28 28 31 30 25 24 26 25 23 19 17 16 15 1 3 5 17 26 23 28 35 43 48 23 22 23 18 35 14 20 34 37 33 35 23 24 26 21 78 72 64 63
32 32 32 32 31 30 29 29 24 22 23 21 20 13 12 9 30 16 12 10 25 26 39 38 39 42 24 26 16 14 22 43 39 42 46 42 31 25 24 48 41 69 65 61 51
32 32 32 31 32 32 31 26 27 21 18 19 18 14 11 11 6 14 18 12 26 34 41 36 30 36 37 39 22 29 39 23 26 49 48 34 27 11 14 58 41 63 63 58 57
34 32 31 31 30 30 29 27 23 22 14 16 15 15 20 40 10 9 23 21 24 35 38 31 34 40 33 21 37 32 10 16 18 54 24 51 25 8 49 50 44 60 62 53 56
39 36 34 33 29 26 25 23 20 13 12 13 13 15 21 13 14 23 7 15 30 28 34 27 28 37 31 35 42 11 13 7 10 34 24 25 17 32 48 46 38 64 62 56 55
40 35 31 30 27 23 18 9 5 3 9 12 11 10 21 13 39 22 24 27 29 28 28 27 26 19 24 12 13 13 12 12 9 37 27 10 15 8 32 69 60 58 56 62 53
41 35 29 25 20 12 4 5 10 10 11 12 10 10 30 34 28 30 30 29 38 30 32 37 7 1 10 6 14 12 16 10 16 23 22 24 16 22 24 60 57 59 56 59 64
42 35 26 21 15 7 8 5 4 3 20 25 24 22 26 18 27 37 35 41 36 38 13 26 9 14 22 23 32 25 16 21 27 20 25 11 14 17 34 48 52 54 57 60 64
40 32 18 16 13 8 14 18 25 26 17 35 44 42 47 19 32 37 35 26 28 16 19 8 16 24 29 31 35 33 28 9 17 27 14 21 24 20 36 40 51 54 59 62 62
34 28 15 14 18 14 24 16 18 23 16 39 44 38 36 45 38 39 44 36 17 16 18 17 23 35 32 27 30 26 19 11 13 30 18 26 13 12 11 34 52 50 46 62 62
27 26 17 21 25 25 41 29 31 30 5 12 24 21 29 40 20 40 41 34 11 20 17 19 39 27 27 23 22 18 20 14 39 34 13 21 10 8 11 24 36 50 54 62 60
24 21 20 23 31 23 25 22 26 17 7 28 25 14 23 13 19 41 41 46 20 19 15 19 25 27 25 29 22 19 17 30 21 15 18 13 11 13 18 7 30 37 53 65 67
28 25 23 23 27 19 36 34 28 4 6 6 17 13 22 32 33 47 38 41 33 19 17 27 38 22 15 21 20 22 14 12 13 9 14 22 37 17 23 32 25 27 35 55 61
31 27 28 27 19 15 21 27 6 4 39 8 11 16 21 16 28 27 23 17 11 6 11 20 25 16 20 7 12 11 3 6 3 6 15 23 9 8 28 31 18 17 38 50 57
29 32 33 20 5 19 38 11 4 2 16 31 53 17 23 22 22 23 18 14 24 23 10 12 11 18 9 8 11 14 12 9 8 9 18 10 10 10 32 59 68 69 57 47 44
27 24 32 17 2 13 20 9 5 10 14 22 37 9 17 26 20 22 17 21 26 22 8 8 17 9 16 13 18 16 14 19 8 10 7 7 11 12 33 24 24 43 22 32 43
26 23 26 18 21 6 18 4 8 13 28 26 18 9 21 20 21 11 18 22 14 13 12 13 9 15 23 22 11 10 3 10 5 3 3 8 11 16 34 35 32 40 47 38 21
24 13 10 15 33 43 5 11 14 28 17 14 23 14 7 22 37 18 3 25 31 21 20 13 1 16 7 6 4 5 9 5 2 2 10 10 1 21 28 35 36 44 44 47 49
7 6 3 8 9 13 8 14 10 9 10 7 9 19 24 23 21 18 16 21 34 21 11 12 5 7 15 8 7 9 10 11 7 11 6 9 5 15 24 42 49 48 54 51 61
22 14 5 15 1 6 13 11 13 22 18 13 8 10 14 11 9 8 10 13 24 15 9 12 10 3 11 2 6 8 14 14 9 3 13 11 8 15 32 38 45 46 51 57 61
12 7 16 33 38 22 14 7 10 7 3 9 8 13 8 6 8 7 10 6 13 14 10 7 6 5 4 6 6 16 15 18 9 3 7 2 22 17 30 32 49 52 59 57 54
7 5 6 7 11 12 15 16 19 13 9 6 8 3 11 5 11 11 18 3 7 3 6 5 6 11 8 2 13 19 12 26 11 15 13 21 14 17 19 32 49 62 58 59 54
14 12 30 3 20 10 10 11 20 19 20 20 13 24 14 14 6 5 13 12 12 13 9 12 7 14 16 15 15 20 33 20 2 31 25 33 19 7 44 57 49 57 55 53 45
33 24 15 21 17 14 9 9 9 6 8 22 22 15 25 19 17 10 17 31 2 7 10 7 6 9 9 14 12 11 18 26 30 29 31 15 19 32 21 42 46 56 51 40 37
Wind_Direction_500mb
326 321 317 314 311 309 305 299 294 294 294 296 296 293 283 283 277 265 250 233 222 207 194 209 221 196 203 240 239 105 308 334 153 160 149 158 114 105 95 195 143 152 145 150 148
331 326 321 316 312 310 306 303 296 290 288 287 292 293 289 285 282 267 266 234 209 211 225 201 207 203 229 235 237 104 323 300 231 164 158 158 129 119 82 330 220 137 146 153 147
329 327 324 321 318 312 307 304 301 295 288 285 285 287 292 296 301 281 280 219 211 212 216 192 208 203 225 234 232 101 222 287 315 174 149 145 131 123 142 190 153 147 154 158 149
323 318 315 314 316 315 311 305 300 297 291 287 280 278 283 287 226 166 3 174 198 203 210 202 227 225 238 241 205 122 239 242 269 167 143 150 143 131 120 156 138 143 155 158 158
320 316 313 311 310 310 308 307 301 294 290 284 276 268 271 265 250 246 322 214 201 204 197 207 241 234 226 244 125 135 208 212 224 197 160 156 144 136 137 159 142 150 157 164 162
326 320 316 312 311 310 307 302 301 291 282 274 266 256 235 248 238 230 268 247 211 204 194 204 232 221 243 251 249 191 199 194 183 204 166 147 104 57 192 146 149 159 162 170 163
332 327 322 318 314 311 306 304 297 289 263 253 247 238 240 228 157 284 256 221 205 197 188 209 229 250 254 289 276 190 181 286 187 173 168 134 137 227 163 171 169 164 167 169 170
336 331 327 321 318 312 307 305 298 272 238 222 219 229 254 209 203 215 217 212 175 196 191 213 251 259 283 280 291 223 234 178 161 158 140 115 80 176 159 195 204 160 170 171 179
346 343 334 326 321 315 307 319 328 232 183 176 182 227 260 222 199 184 210 197 172 194 207 237 240 268 286 289 303 257 224 198 309 163 149 132 140 252 169 191 165 166 174 173 165
350 349 345 339 336 331 356 72 101 111 136 162 171 276 239 209 200 193 201 185 181 191 229 243 134 12 289 279 234 227 229 272 166 137 96 86 117 155 203 152 165 171 174 172 160
353 352 355 1 359 42 85 26 297 148 194 210 203 232 305 180 186 191 192 191 183 200 190 214 117 215 234 242 250 260 209 213 64 52 84 67 151 180 151 161 168 175 174 166 163
354 353 8 21 22 357 326 308 334 325 280 274 257 262 268 222 183 190 183 188 188 194 198 134 218 232 230 235 246 256 268 59 107 77 76 103 221 182 165 167 185 177 179 171 168
355 355 354 350 341 317 305 306 343 317 295 287 240 244 252 175 183 180 183 195 198 194 187 211 230 221 240 239 241 247 251 174 158 98 103 125 265 289 278 171 183 180 183 174 170
354 356 339 327 325 321 295 303 331 327 303 260 177 255 254 169 187 190 192 207 183 203 209 216 251 229 232 250 234 246 240 244 155 157 150 162 251 167 227 203 182 173 191 182 181
337 342 335 315 309 314 353 355 322 314 287 147 173 212 219 211 181 185 191 222 231 199 192 237 231 248 224 241 241 248 253 130 152 168 107 209 231 261 121 233 180 191 187 188 197
321 314 313 317 306 307 319 331 307 294 257 217 140 155 200 209 252 169 180 229 252 264 228 235 227 234 247 225 244 263 278 184 170 143 220 200 201 161 172 214 206 191 208 188 194
317 307 303 288 298 358 348 316 302 6 337 356 159 191 213 194 232 181 170 214 231 225 270 240 250 223 249 253 266 277 220 287 179 147 247 204 171 189 169 182 193 174 230 211 195
306 301 298 290 318 353 326 329 61 194 301 288 288 197 209 216 226 159 164 194 240 252 237 214 241 238 180 214 239 254 203 182 175 193 225 28 112 160 169 177 174 189 220 233 264
312 301 285 303 127 50 48 59 310 291 234 296 329 194 213 221 217 155 177 206 223 232 242 250 215 204 183 180 214 282 236 234 282 254 7 113 39 93 167 132 160 211 185 190 193
334 305 286 303 229 114 52 299 250 232 284 320 338 288 25 309 192 163 184 208 255 224 77 11 357 288 217 209 227 175 305 11 312 129 154 119 145 171 130 119 110 88 98 157 202
339 320 299 100 130 52 278 252 266 253 305 16 4 11 341 26 29 11 79 43 15 7 2 35 61 299 52 152 174 56 322 320 28 132 151 155 123 335 107 116 102 91 92 99 129
314 285 259 173 114 168 187 206 303 342 335 69 30 40 26 33 22 33 350 22 354 1 6 6 273 260 247 257 237 257 250 219 140 298 102 102 17 33 76 90 93 88 84 92 93
327 265 51 203 252 185 176 117 39 14 10 10 37 102 18 74 41 102 281 9 348 350 41 344 335 10 307 302 278 249 277 280 273 135 161 129 197 134 115 98 105 107 98 91 95
318 340 12 38 28 33 16 77 116 42 18 54 8 326 45 166 204 191 179 65 4 21 343 46 330 58 256 285 337 338 260 271 248 4 68 85 146 158 115 119 116 106 96 90 93
276 58 321 13 344 86 16 13 51 20 13 342 164 255 89 52 356 354 17 117 208 342 291 134 315 351 324 295 352 328 276 246 265 148 128 193 138 177 147 119 109 103 100 98 94
359 8 346 31 286 96 61 69 44 22 356 27 6 6 103 72 79 15 13 356 45 329 9 355 64 303 311 323 18 338 331 226 290 96 102 104 82 72 114 113 110 104 103 98 99
4 351 1 272 22 65 45 39 53 84 50 30 354 358 46 29 34 326 298 304 259 349 333 56 54 332 255 59 18 350 17 9 89 111 126 123 147 135 130 107 109 105 98 95 87
Wind_Speed_850mb
29 29 29 29 30 32 30 26 23 23 23 22 23 21 19 21 23 30 40 21 24 14 23 18 15 28 30 43 43 9 5 4 9 21 11 10 11 15 29 8 29 34 67 77 73
29 29 28 28 26 27 30 30 27 24 23 21 21 23 21 21 28 41 31 28 32 21 27 30 28 28 37 37 25 9 11 6 7 14 20 19 13 22 14 11 10 65 66 69 64
29 28 28 29 29 26 25 27 29 26 25 22 18 20 20 21 22 15 13 27 29 31 23 30 30 39 42 48 31 18 10 14 29 26 44 32 22 22 40 24 65 74 76 67 72
30 30 28 28 28 31 30 25 24 26 25 23 19 17 16 15 1 3 5 17 26 23 28 35 43 48 23 22 23 18 35 14 20 34 37 33 35 23 24 26 21 78 72 64 63
32 32 32 32 31 30 29 29 24 22 23 21 20 13 12 9 30 16 12 10 25 26 39 38 39 42 24 26 16 14 22 43 39 42 46 42 31 25 24 48 41 69 65 61 51
32 32 32 31 32 32 31 26 27 21 18 19 18 14 11 11 6 14 18 12 26 34 41 36 30 36 37 39 22 29 39 23 26 49 48 34 27 11 14 58 41 63 63 58 57
34 32 31 31 30 30 29 27 23 22 14 16 15 15 20 40 10 9 23 21 24 35 38 31 34 40 33 21 37 32 10 16 18 54 24 51 25 8 49 50 44 60 62 53 56
39 36 34 33 29 26 25 23 20 13 12 13 13 15 21 13 14 23 7 15 30 28 34 27 28 37 31 35 42 11 13 7 10 34 24 25 17 32 48 46 38 64 62 56 55
40 35 31 30 27 23 18 9 5 3 9 12 11 10 21 13 39 22 24 27 29 28 28 27 26 19 24 12 13 13 12 12 9 37 27 10 15 8 32 69 60 58 56 62 53
41 35 29 25 20 12 4 5 10 10 11 12 10 10 30 34 28 30 30 29 38 30 32 37 7 1 10 6 14 12 16 10 16 23 22 24 16 22 24 60 57 59 56 59 64
42 35 26 21 15 7 8 5 4 3 20 25 24 22 26 18 27 37 35 41 36 38 13 26 9 14 22 23 32 25 16 21 27 20 25 11 14 17 34 48 52 54 57 60 64
40 32 18 16 13 8 14 18 25 26 17 35 44 42 47 19 32 37 35 26 28 16 19 8 16 24 29 31 35 33 28 9 17 27 14 21 24 20 36 40 51 54 59 62 62
34 28 15 14 18 14 24 16 18 23 16 39 44 38 36 45 38 39 44 36 17 16 18 17 23 35 32 27 30 26 19 11 13 30 18 26 13 12 11 34 52 50 46 62 62
27 26 17 21 25 25 41 29 31 30 5 12 24 21 29 40 20 40 41 34 11 20 17 19 39 27 27 23 22 18 20 14 39 34 13 21 10 8 11 24 36 50 54 62 60
24 21 20 23 31 23 25 22 26 17 7 28 25 14 23 13 19 41 41 46 20 19 15 19 25 27 25 29 22 19 17 30 21 15 18 13 11 13 18 7 30 37 53 65 67
28 25 23 23 27 19 36 34 28 4 6 6 17 13 22 32 33 47 38 41 33 19 17 27 38 22 15 21 20 22 14 12 13 9 14 22 37 17 23 32 25 27 35 55 61
31 27 28 27 19 15 21 27 6 4 39 8 11 16 21 16 28 27 23 17 11 6 11 20 25 16 20 7 12 11 3 6 3 6 15 23 9 8 28 31 18 17 38 50 57
29 32 33 20 5 19 38 11 4 2 16 31 53 17 23 22 22 23 18 14 24 23 10 12 11 18 9 8 11 14 12 9 8 9 18 10 10 10 32 59 68 69 57 47 44
27 24 32 17 2 13 20 9 5 10 14 22 37 9 17 26 20 22 17 21 26 22 8 8 17 9 16 13 18 16 14 19 8 10 7 7 11 12 33 24 24 43 22 32 43
26 23 26 18 21 6 18 4 8 13 28 26 18 9 21 20 21 11 18 22 14 13 12 13 9 15 23 22 11 10 3 10 5 3 3 8 11 16 34 35 32 40 47 38 21
24 13 10 15 33 43 5 11 14 28 17 14 23 14 7 22 37 18 3 25 31 21 20 13 1 16 7 6 4 5 9 5 2 2 10 10 1 21 28 35 36 44 44 47 49
7 6 3 8 9 13 8 14 10 9 10 7 9 19 24 23 21 18 16 21 34 21 11 12 5 7 15 8 7 9 10 11 7 11 6 9 5 15 24 42 49 48 54 51 61
22 14 5 15 1 6 13 11 13 22 18 13 8 10 14 11 9 8 10 13 24 15 9 12 10 3 11 2 6 8 14 14 9 3 13 11 8 15 32 38 45 46 51 57 61
12 7 16 33 38 22 14 7 10 7 3 9 8 13 8 6 8 7 10 6 13 14 10 7 6 5 4 6 6 16 15 18 9 3 7 2 22 17 30 32 49 52 59 57 54
7 5 6 7 11 12 15 16 19 13 9 6 8 3 11 5 11 11 18 3 7 3 6 5 6 11 8 2 13 19 12 26 11 15 13 21 14 17 19 32 49 62 58 59 54
14 12 30 3 20 10 10 11 20 19 20 20 13 24 14 14 6 5 13 12 12 13 9 12 7 14 16 15 15 20 33 20 2 31 25 33 19 7 44 57 49 57 55 53 45
33 24 15 21 17 14 9 9 9 6 8 22 22 15 25 19 17 10 17 31 2 7 10 7 6 9 9 14 12 11 18 26 30 29 31 15 19 32 21 42 46 56 51 40 37
Wind_Direction_850mb
326 321 317 314 311 309 305 299 294 294 294 296 296 293 283 283 277 265 250 233 222 207 194 209 221 196 203 240 239 105 308 334 153 160 149 158 114 105 95 195 143 152 145 150 148
331 326 321 316 312 310 306 303 296 290 288 287 292 293 289 285 282 267 266 234 209 211 225 201 207 203 229 235 237 104 323 300 231 164 158 158 129 119 82 330 220 137 146 153 147
329 327 324 321 318 312 307 304 301 295 288 285 285 287 292 296 301 281 280 219 211 212 216 192 208 203 225 234 232 101 222 287 315 174 149 145 131 123 142 190 153 147 154 158 149
323 318 315 314 316 315 311 305 300 297 291 287 280 278 283 287 226 166 3 174 198 203 210 202 227 225 238 241 205 122 239 242 269 167 143 150 143 131 120 156 138 143 155 158 158
320 316 313 311 310 310 308 307 301 294 290 284 276 268 271 265 250 246 322 214 201 204 197 207 241 234 226 244 125 135 208 212 224 197 160 156 144 136 137 159 142 150 157 164 162
326 320 316 312 311 310 307 302 301 291 282 274 266 256 235 248 238 230 268 247 211 204 194 204 232 221 243 251 249 191 199 194 183 204 166 147 104 57 192 146 149 159 162 170 163
332 327 322 318 314 311 306 304 297 289 263 253 247 238 240 228 157 284 256 221 205 197 188 209 229 250 254 289 276 190 181 286 187 173 168 134 137 227 163 171 169 164 167 169 170
336 331 327 321 318 312 307 305 298 272 238 222 219 229 254 209 203 215 217 212 175 196 191 213 251 259 283 280 291 223 234 178 161 158 140 115 80 176 159 195 204 160 170 171 179
346 343 334 326 321 315 307 319 328 232 183 176 182 227 260 222 199 184 210 197 172 194 207 237 240 268 286 289 303 257 224 198 309 163 149 132 140 252 169 191 165 166 174 173 165
350 349 345 339 336 331 356 72 101 111 136 162 171 276 239 209 200 193 201 185 181 191 229 243 134 12 289 279 234 227 229 272 166 137 96 86 117 155 203 152 165 171 174 172 160
353 352 355 1 359 42 85 26 297 148 194 210 203 232 305 180 186 191 192 191 183 200 190 214 117 215 234 242 250 260 209 213 64 52 84 67 151 180 151 161 168 175 174 166 163
354 353 8 21 22 357 326 308 334 325 280 274 257 262 268 222 183 190 183 188 188 194 198 134 218 232 230 235 246 256 268 59 107 77 76 103 221 182 165 167 185 177 179 171 168
355 355 354 350 341 317 305 306 343 317 295 287 240 244 252 175 183 180 183 195 198 194 187 211 230 221 240 239 241 247 251 174 158 98 103 125 265 289 278 171 183 180 183 174 170
354 356 339 327 325 321 295 303 331 327 303 260 177 255 254 169 187 190 192 207 183 203 209 216 251 229 232 250 234 246 240 244 155 157 150 162 251 167 227 203 182 173 191 182 181
337 342 335 315 309 314 353 355 322 314 287 147 173 212 219 211 181 185 191 222 231 199 192 237 231 248 224 241 241 248 253 130 152 168 107 209 231 261 121 233 180 191 187 188 197
321 314 313 317 306 307 319 331 307 294 257 217 140 155 200 209 252 169 180 229 252 264 228 235 227 234 247 225 244 263 278 184 170 143 220 200 201 161 172 214 206 191 208 188 194
317 307 303 288 298 358 348 316 302 6 337 356 159 191 213 194 232 181 170 214 231 225 270 240 250 223 249 253 266 277 220 287 179 147 247 204 171 189 169 182 193 174 230 211 195
306 301 298 290 318 353 326 329 61 194 301 288 288 197 209 216 226 159 164 194 240 252 237 214 241 238 180 214 239 254 203 182 175 193 225 28 112 160 169 177 174 189 220 233 264
312 301 285 303 127 50 48 59 310 291 234 296 329 194 213 221 217 155 177 206 223 232 242 250 215 204 183 180 214 282 236 234 282 254 7 113 39 93 167 132 160 211 185 190 193
334 305 286 303 229 114 52 299 250 232 284 320 338 288 25 309 192 163 184 208 255 224 77 11 357 288 217 209 227 175 305 11 312 129 154 119 145 171 130 119 110 88 98 157 202
339 320 299 100 130 52 278 252 266 253 305 16 4 11 341 26 29 11 79 43 15 7 2 35 61 299 52 152 174 56 322 320 28 132 151 155 123 335 107 116 102 91 92 99 129
314 285 259 173 114 168 187 206 303 342 335 69 30 40 26 33 22 33 350 22 354 1 6 6 273 260 247 257 237 257 250 219 140 298 102 102 17 33 76 90 93 88 84 92 93
327 265 51 203 252 185 176 117 39 14 10 10 37 102 18 74 41 102 281 9 348 350 41 344 335 10 307 302 278 249 277 280 273 135 161 129 197 134 115 98 105 107 98 91 95
318 340 12 38 28 33 16 77 116 42 18 54 8 326 45 166 204 191 179 65 4 21 343 46 330 58 256 285 337 338 260 271 248 4 68 85 146 158 115 119 116 106 96 90 93
276 58 321 13 344 86 16 13 51 20 13 342 164 255 89 52 356 354 17 117 208 342 291 134 315 351 324 295 352 328 276 246 265 148 128 193 138 177 147 119 109 103 100 98 94
359 8 346 31 286 96 61 69 44 22 356 27 6 6 103 72 79 15 13 356 45 329 9 355 64 303 311 323 18 338 331 226 290 96 102 104 82 72 114 113 110 104 103 98 99
4 351 1 272 22 65 45 39 53 84 50 30 354 358 46 29 34 326 298 304 259 349 333 56 54 332 255 59 18 350 17 9 89 111 126 123 147 135 130 107 109 105 98 95 87